Location: Red Deer
(52.2681°N, 113.8112°W)
Time: 23:48:45
(UTC-06:00)

QB50P2 - Pass Details

Date: 30 May 2022
Orbit: 589 x 607 km, 97.9° (Epoch: 27 June)

Event Time Altitude Azimuth Distance (km) Brightness Sun altitude
Rises 02:53:17 0° 16° (NNE) 2,836 ? -13.9°
Reaches altitude 10° 02:55:29 10° 20° (NNE) 1,929 ? -13.8°
Maximum altitude 02:59:38 61° 102° (ESE) 674 ? -13.6°
Enters shadow 03:02:29 19° 178° (S) 1,414 ? -13.4°
